This demonstration page uses our WeatherBlox Daily Observations layout. Learn more.

Left ArrowRight Arrow

Hourly Observations for December 13, 2021

Temp ( °F °C ) Dew Point ( °F °C ) Humidity (%) Winds ( mph kmh ) Pressure ( in mb ) Visibility ( mi km ) Precip ( " mm )
12:56 am 00:56 Clear 32 0 21 -6.1 64 64 SW 6 9 30.01 1016 10 16 0.00 0.00
1:56 am 01:56 Clear 30 -1.1 21 -6.1 69 69 NW 5 7 30.01 1016 10 16 0.00 0.00
2:56 am 02:56 Clear 29 -1.7 22 -5.6 75 75 NW 9 15 30.02 1017 10 16 0.00 0.00
3:56 am 03:56 Clear 31 -0.6 22 -5.6 69 69 W 6 9 30.04 1017 10 16 0.00 0.00
4:56 am 04:56 Clear 30 -1.1 23 -5 75 75 NW 7 11 30.04 1017 10 16 0.00 0.00
5:56 am 05:56 Clear 28 -2.2 22 -5.6 78 78 NW 8 13 30.05 1018 10 16 0.00 0.00
6:56 am 06:56 Clear 29 -1.7 23 -5 78 78 WNW 7 11 30.08 1019 10 16 0.00 0.00
7:56 am 07:56 Sunny 30 -1.1 23 -5 75 75 Calm 30.09 1019 10 16 0.00 0.00
8:56 am 08:56 Sunny 30 -1.1 24 -4.4 79 79 NNW 5 7 30.11 1020 10 16 0.00 0.00
9:56 am 09:56 Sunny 37 2.8 25 -3.9 62 62 NNW 5 7 30.11 1020 10 16 0.00 0.00
10:56 am 10:56 Sunny 42 5.6 28 -2.2 58 58 N 3 6 30.12 1020 10 16 0.00 0.00
11:56 am 11:56 Sunny 48 8.9 29 -1.7 48 48 E 3 6 30.09 1019 10 16 0.00 0.00
12:56 pm 12:56 Sunny 51 10.6 30 -1.1 44 44 E 6 9 30.06 1018 10 16 0.00 0.00
1:56 pm 13:56 Sunny 55 12.8 29 -1.7 37 37 ESE 6 9 30.04 1017 10 16 0.00 0.00
2:56 pm 14:56 Sunny 56 13.3 29 -1.7 36 36 ENE 7 11 30.02 1017 10 16 0.00 0.00
3:56 pm 15:56 Sunny 54 12.2 33 0.6 45 45 NE 9 15 30.02 1017 10 16 0.00 0.00
4:56 pm 16:56 Sunny 44 6.7 34 1.1 68 68 E 8 13 30.03 1017 10 16 0.00 0.00
5:56 pm 17:56 Clear 38 3.3 31 -0.6 76 76 ENE 6 9 30.06 1018 10 16 0.00 0.00
6:56 pm 18:56 Clear 34 1.1 30 -1.1 85 85 NE 6 9 30.06 1018 10 16 0.00 0.00
7:56 pm 19:56 Clear 32 0 28 -2.2 85 85 E 7 11 30.08 1019 10 16 0.00 0.00
8:56 pm 20:56 Clear 33 0.6 27 -2.8 78 78 N 3 6 30.10 1019 10 16 0.00 0.00
9:56 pm 21:56 Clear 31 -0.6 27 -2.8 85 85 NNW 5 7 30.08 1019 10 16 0.00 0.00
10:56 pm 22:56 Clear 30 -1.1 26 -3.3 85 85 Calm 30.06 1018 10 16 0.00 0.00
11:56 pm 23:56 Clear 26 -3.3 23 -5 88 88 Calm 30.05 1018 10 16 0.00 0.00

Powered by AerisWeather